Regional Weather Roundup
Issued by NWS

Home | Current Version | Previous Version | Graphics & Text | Print | Product List | Glossary On
Versions: 1 2 3 4 5 6 7 8 9 10 11 12 13 14 15 16 17 18 19 20 21 22 23 24 25 26 27 28 29 30 31 32 33 34 35 36 37 38 39 40 41 42 43 44 45 46 47 48 49 50
000
ASUS43 KMKX 260010
RWRWI

WISCONSIN REGIONAL WEATHER ROUNDUP
NATIONAL WEATHER SERVICE MILWAUKEE/SULLIVAN WI
700 PM CDT THU MAY 25 2017

NOTE: "FAIR" INDICATES FEW OR NO CLOUDS BELOW 12,000 FEET WITH NO
SIGNIFICANT WEATHER AND/OR OBSTRUCTIONS TO VISIBILITY.

WIZ001-002-006>008-014>016-023>028-260100-
NORTHWEST WISCONSIN

CITY           SKY/WX    TMP DP  RH WIND       PRES   REMARKS
SUPERIOR ARPT  NOT AVBL
ASHLAND        SUNNY     52  43  71 N8        29.70S
6HR MIN TEMP:  52; 6HR MAX TEMP:  63;

HAYWARD        CLOUDY    70  46  42 S10       29.66S
6HR MIN TEMP:  66; 6HR MAX TEMP:  73;

SIREN          CLOUDY    68  49  49 CALM      29.66R
6HR MIN TEMP:  67; 6HR MAX TEMP:  71;

CUMBERLAND     CLOUDY    64  50  59 SW3       29.66S
RICE LAKE      MOSUNNY   69  48  46 S6        29.67S
6HR MIN TEMP:  65; 6HR MAX TEMP:  71;

CHETEK         MOSUNNY   68  52  56 S3        29.66S
6HR MIN TEMP:  67; 6HR MAX TEMP:  72;

LADYSMITH      SUNNY     68  50  51 S5        29.67F
6HR MIN TEMP:  68; 6HR MAX TEMP:  73;

EAU CLAIRE     MOSUNNY   70  50  49 S6        29.65S
6HR MIN TEMP:  68; 6HR MAX TEMP:  73;

MENOMONIE      MOSUNNY   69  51  53 S7        29.66R
6HR MIN TEMP:  67; 6HR MAX TEMP:  73;

NEW RICHMOND   MOSUNNY   67  48  51 S9        29.67R
6HR MIN TEMP:  65; 6HR MAX TEMP:  70;

OSCEOLA        SUNNY     68  50  53 S8        29.69R
6HR MIN TEMP:  65; 6HR MAX TEMP:  71;

$$

WIZ003>005-009-010-017-018-260100-
NORTH CENTRAL WISCONSIN

CITY           SKY/WX    TMP DP  RH WIND       PRES   REMARKS
MANITOWISH WTR MOSUNNY   69  46  43 SE3       29.68R
6HR MIN TEMP:  65; 6HR MAX TEMP:  72;

ARBOR VITAE    MOSUNNY   72  48  43 SE6       29.68S
6HR MIN TEMP:  67; 6HR MAX TEMP:  72;

WOODRUFF       MOSUNNY   72  48  43 SE6       29.68S
6HR MIN TEMP:  67; 6HR MAX TEMP:  72;

RHINELANDER    CLOUDY    69  47  45 E7        29.69R
6HR MIN TEMP:  69; 6HR MAX TEMP:  74;

EAGLE RIVER    SUNNY     69  41  36 SE5       29.69S
6HR MIN TEMP:  66; 6HR MAX TEMP:  71;

LAND O LAKES   SUNNY     70  43  38 SE5       29.71R
6HR MIN TEMP:  67; 6HR MAX TEMP:  72;

PHILLIPS       CLOUDY    68  50  51 SE3       29.67R
6HR MIN TEMP:  66; 6HR MAX TEMP:  72;

TOMAHAWK       MOSUNNY   68  47  48 CALM      29.69R
6HR MIN TEMP:  67; 6HR MAX TEMP:  72;

MEDFORD        MOSUNNY   68  51  54 SW3       29.67S
6HR MIN TEMP:  65; 6HR MAX TEMP:  70;

MERRILL        CLOUDY    68  51  53 SE6       29.68S
6HR MIN TEMP:  68; 6HR MAX TEMP:  73;

$$

WIZ029-030-035-036-043>047-260100-
CENTRAL WISCONSIN

CITY           SKY/WX    TMP DP  RH WIND       PRES   REMARKS
WAUSAU         CLOUDY    67  50  54 S5        29.66R
6HR MIN TEMP:  67; 6HR MAX TEMP:  73;

MOSINEE        PTSUNNY   68  52  56 CALM      29.69R
MARSHFIELD     SUNNY     70  47  43 SW7       29.67R
6HR MIN TEMP:  66; 6HR MAX TEMP:  73;

STEVENS POINT  SUNNY     68  49  49 CALM      29.69R
6HR MIN TEMP:  66; 6HR MAX TEMP:  71;

WAUPACA        SUNNY     72  51  47 SE7       29.68R
6HR MIN TEMP:  71; 6HR MAX TEMP:  75;

WAUTOMA        SUNNY     70  51  51 SE7       29.68R
6HR MIN TEMP:  69; 6HR MAX TEMP:  72;

WISC RAPIDS    SUNNY     72  50  45 S5        29.68S
6HR MIN TEMP:  69; 6HR MAX TEMP:  74; 6HR PCP: TRACE;

CAMP DOUGLAS   MOSUNNY   71  52  50 SE7       29.67R
6HR MIN TEMP:  66; 6HR MAX TEMP:  73;

$$

WIZ011>013-019>022-031-037>040-048>050-260100-
NORTHEAST WISCONSIN

CITY           SKY/WX    TMP DP  RH WIND       PRES   REMARKS
ANTIGO         SUNNY     65  53  63 S3        29.69S
6HR MIN TEMP:  64; 6HR MAX TEMP:  70;

SHAWANO        CLOUDY    69  52  55 S3        29.69R
6HR MIN TEMP:  69; 6HR MAX TEMP:  74;

OCONTO         MOSUNNY   66  49  54 NE6       29.68R
6HR MIN TEMP:  65; 6HR MAX TEMP:  69;

STURGEON BAY   MOSUNNY   63  52  67 E8        29.69R
6HR MIN TEMP:  61; 6HR MAX TEMP:  67;

GREEN BAY      SUNNY     68  53  58 NE6       29.68R
6HR MIN TEMP:  64; 6HR MAX TEMP:  69;

MANITOWOC      SUNNY     61  52  72 NE7       29.69R
6HR MIN TEMP:  61; 6HR MAX TEMP:  65;

APPLETON       MOSUNNY   68  43  40 E9        29.67R
CLINTONVILLE   SUNNY     68  52  56 S5        29.68R
OSHKOSH        SUNNY     67  50  54 NE7       29.68R
6HR MIN TEMP:  64; 6HR MAX TEMP:  69;

$$

WIZ032>034-041-042-053>061-260100-
SOUTHWEST WISCONSIN

CITY           SKY/WX    TMP DP  RH WIND       PRES   REMARKS
LA CROSSE      MOSUNNY   71  54  54 SW7       29.65S
6HR MIN TEMP:  65; 6HR MAX TEMP:  74;

SPARTA         SUNNY     71  53  53 S5        29.67S
6HR MIN TEMP:  66; 6HR MAX TEMP:  73;

VIROQUA        MOSUNNY   70  49  47 N6        29.68S
6HR MIN TEMP:  63; 6HR MAX TEMP:  71;

BOSCOBEL       SUNNY     71  52  50 CALM      29.67F
6HR MIN TEMP:  68; 6HR MAX TEMP:  74;

PRAIRIE DU CHI CLOUDY    70  49  47 SE5       29.67S
6HR MIN TEMP:  64; 6HR MAX TEMP:  72;

PLATTEVILLE    SUNNY     69  55  60 S3        29.70S
6HR MIN TEMP:  61; 6HR MAX TEMP:  70;

$$

WIZ056-057-062-063-064-067-068-260100-
SOUTH CENTRAL WISCONSIN

CITY           SKY/WX    TMP DP  RH WIND       PRES   REMARKS
REEDSBURG      MOSUNNY   68  53  58 CALM      29.68R
6HR MIN TEMP:  65; 6HR MAX TEMP:  72;

BARABOO/DELLS  SUNNY     69  50  51 SE3       29.69R
6HR MIN TEMP:  66; 6HR MAX TEMP:  72;

LONE ROCK      SUNNY     71  51  49 S3        29.67S
6HR MIN TEMP:  65; 6HR MAX TEMP:  73;

MINERAL POINT  SUNNY     70  54  56 CALM      29.70R
MADISON        MOSUNNY   69  51  52 NE5       29.68R
6HR MIN TEMP:  65; 6HR MAX TEMP:  72;

MIDDLETON      MOSUNNY   70  51  51 SE3       29.69R
6HR MIN TEMP:  65; 6HR MAX TEMP:  73;

WATERTOWN      SUNNY     67  53  59 N5        29.68R
6HR MIN TEMP:  63; 6HR MAX TEMP:  69;

MONROE         SUNNY     68  48  49 CALM      29.69R
JANESVILLE     MOSUNNY   72  50  46 NE7       29.67R
$$

WIZ051-052-058>065-066-070>072-260100-
SOUTHEAST WISCONSIN

CITY           SKY/WX    TMP DP  RH WIND       PRES   REMARKS
MILWAUKEE      MOSUNNY   58  52  80 N13       29.68R
6HR MIN TEMP:  58; 6HR MAX TEMP:  66;

WAUKESHA       MOSUNNY   61  50  67 E6        29.68S
MILWAUKEE/TIMM SUNNY     63  48  59 NE7       29.69R
RACINE         SUNNY     57  50  77 N12       29.70R
6HR MIN TEMP:  57; 6HR MAX TEMP:  64;

KENOSHA        SUNNY     62  50  64 NE12      29.68R
6HR MIN TEMP:  62; 6HR MAX TEMP:  68;

FOND DU LAC    SUNNY     68  53  58 NE7       29.68R
6HR MIN TEMP:  65; 6HR MAX TEMP:  70;

SHEBOYGAN      SUNNY     61  54  77 NE8       29.69R
6HR MIN TEMP:  60; 6HR MAX TEMP:  66;

WEST BEND      MOSUNNY   63  52  67 N5        29.68S
JUNEAU         SUNNY     67  50  54 N5        29.69R
6HR MIN TEMP:  62; 6HR MAX TEMP:  69;

$$

LSZ147-162-260100-
LAKE SUPERIOR

STATION/POSITION TIME  TEMP    WIND        PRES    WAVE
                       AIR SEA DIR/SP/G            HT/PER
                 (UTC) (F)     (DEG/KT/KT) (MB)    (FT/S)
$$

LMZ867-665-643>646-260100-
LAKE MICHIGAN

STATION/POSITION TIME  TEMP    WIND        PRES    WAVE
                       AIR SEA DIR/SP/G            HT/PER
                 (UTC) (F)     (DEG/KT/KT) (MB)    (FT/S)
$$

TC  - TEMPERATURE IN CELSIUS
VSB - VISIBILITY IN STATUTE MILES
WCI - WIND CHILL INDEX
HX  - HEAT INDEX




USA.gov is the U.S. government's official web portal to all federal, state and local government web resources and services.